Weather History for KDSM - January, 2014

Change the Weather History Date:

Tuesday, January 14, 2014

  Actual Average Record
Temperature  
Mean Temperature 30 °F 22 °F  
Max Temperature 42 °F 31 °F 57 °F (1914)
Min Temperature 18 °F 14 °F -19 °F (1888)
Degree Days  
Heating Degree Days 35 43  
Month to date heating degree days 669 595  
Since 1 July heating degree days 3225 3062  
Cooling Degree Days 0 0  
Month to date cooling degree days 0 0  
Year to date cooling degree days 0 0  
Moisture  
Dew Point 18 °F    
Average Humidity 61    
Maximum Humidity 75    
Minimum Humidity 47    
Precipitation  
Precipitation 0.02 in 0.04 in 0.78 in (1960)
Month to date precipitation 0.20 0.45  
Year to date precipitation 0.20 0.45  
Snow  
Snow T in 0.20 in 5.70 in (1930)
Month to date snowfall 2.2 3.6  
Since 1 July snowfall 17.2 15.5  
Snow Depth T in    
Sea Level Pressure  
Sea Level Pressure 29.93 in    
Wind  
Wind Speed 23 mph (NW)    
Max Wind Speed 41 mph    
Max Gust Speed 56 mph    
Visibility 10 miles    
Events Rain , Snow    
T = Trace of Precipitation, MM = Missing Value Source: NWS Daily Summary

Daily Weather History Graph

Daily Weather History Graph

Search for Another Location

Airport or City:

Trip Planner

Search our weather history database for the weather conditions in past years. The results will help you decide how hot, cold, wet, or windy it might be!

Date:

Astronomy

Jan. 14, 2014 Rise Set
Actual Time 7:39 AM CST 5:08 PM CST
Civil Twilight 7:08 AM CST 5:39 PM CST
Nautical Twilight 6:34 AM CST 6:13 PM CST
Astronomical Twilight 6:01 AM CST 6:46 PM CST
Moon 4:14 PM CST (1/14) 6:13 AM CST (1/14)
Length of Visible Light 10h 30m
Length of Day
9h 29m
Waxing Gibbous, 98% of the Moon is Illuminated
Jan 14
Waxing Gibbous
Jan 15
Full
Jan 23
Last Quarter
Jan 30
New
Feb 6
First Quarter

Hourly Weather History & Observations

Time (CST) Temp. Windchill Dew Point Humidity Pressure Visibility Wind Dir Wind Speed Gust Speed Precip Events Conditions
12:54 AM 34.0 °F 25.5 °F 26.1 °F 73% 29.65 in 10.0 mi SSW 11.5 mph - N/A   Partly Cloudy
1:54 AM 36.0 °F 28.5 °F 27.0 °F 70% 29.63 in 10.0 mi SW 10.4 mph - N/A   Overcast
2:54 AM 37.0 °F 31.0 °F 28.0 °F 70% 29.63 in 9.0 mi WSW 8.1 mph - 0.00 in Rain Light Rain
3:54 AM 37.0 °F 29.3 °F 30.9 °F 79% 29.63 in 10.0 mi West 11.5 mph - 0.01 in   Overcast
4:54 AM 41.0 °F 31.1 °F 33.1 °F 73% 29.65 in 10.0 mi WNW 23.0 mph 29.9 mph 0.01 in   Overcast
5:05 AM 42.1 °F 32.6 °F 34.0 °F 73% 29.64 in 10.0 mi WNW 23.0 mph 27.6 mph N/A   Overcast
5:54 AM 37.9 °F 25.7 °F 28.9 °F 70% 29.72 in 10.0 mi NW 29.9 mph 44.9 mph N/A   Mostly Cloudy
6:54 AM 36.0 °F 22.6 °F 25.0 °F 64% 29.77 in 10.0 mi NNW 32.2 mph 42.6 mph N/A   Scattered Clouds
7:51 AM 33.8 °F 22.2 °F 23.0 °F 65% 29.82 in 10.0 mi NNW 20.7 mph 39.1 mph N/A   Mostly Cloudy
7:54 AM 33.1 °F 19.3 °F 23.0 °F 66% 29.84 in 10.0 mi NNW 28.8 mph 39.1 mph N/A   Mostly Cloudy
8:54 AM 30.9 °F 17.5 °F 19.9 °F 64% 29.90 in 10.0 mi NNW 24.2 mph 31.1 mph N/A   Mostly Cloudy
9:54 AM 30.0 °F 15.7 °F 18.0 °F 61% 29.94 in 9.0 mi NNW 26.5 mph 38.0 mph 0.00 in   Overcast
10:54 AM 32.0 °F 19.8 °F 19.0 °F 59% 29.95 in 10.0 mi NW 20.7 mph 31.1 mph 0.00 in Snow Light Snow
11:54 AM 30.9 °F 17.8 °F 16.0 °F 54% 29.96 in 9.0 mi NW 23.0 mph 34.5 mph 0.00 in Snow Light Snow
12:54 PM 30.0 °F 16.3 °F 12.9 °F 49% 29.99 in 9.0 mi NNW 24.2 mph 43.7 mph 0.00 in Snow Light Snow
1:54 PM 28.9 °F 13.0 °F 10.9 °F 47% 30.00 in 9.0 mi NW 32.2 mph 43.7 mph 0.00 in   Overcast
2:54 PM 28.9 °F 13.0 °F 12.0 °F 49% 30.02 in 9.0 mi NW 32.2 mph 42.6 mph 0.00 in   Overcast
3:54 PM 28.0 °F 12.8 °F 12.0 °F 51% 30.06 in 10.0 mi NNW 27.6 mph 36.8 mph N/A   Overcast
4:54 PM 25.0 °F 7.6 °F 15.1 °F 66% 30.09 in 7.0 mi NW 32.2 mph 42.6 mph 0.00 in Snow Light Snow
5:54 PM 24.1 °F 10.6 °F 12.0 °F 60% 30.13 in 9.0 mi NNW 17.3 mph 28.8 mph 0.00 in Snow Light Snow
6:54 PM 24.1 °F 9.0 °F 10.9 °F 57% 30.14 in 9.0 mi NNW 21.9 mph 36.8 mph 0.00 in Snow Light Snow
7:54 PM 24.1 °F 7.7 °F 10.9 °F 57% 30.15 in 10.0 mi NNW 26.5 mph 38.0 mph 0.00 in   Overcast
8:54 PM 21.9 °F 7.3 °F 10.0 °F 60% 30.17 in 10.0 mi NNW 18.4 mph 28.8 mph N/A   Mostly Cloudy
9:54 PM 19.9 °F 2.8 °F 8.1 °F 60% 30.17 in 10.0 mi NNW 24.2 mph 32.2 mph 0.00 in   Mostly Cloudy
10:54 PM 19.0 °F 2.4 °F 6.1 °F 57% 30.19 in 10.0 mi North 21.9 mph 31.1 mph 0.00 in   Partly Cloudy
11:54 PM 18.0 °F 4.2 °F 6.1 °F 60% 30.19 in 10.0 mi NNW 13.8 mph 26.5 mph N/A   Mostly Cloudy